Location: *
(37.5724°S, 58.0067°E)
Time: 04:10:49
(UTC+00:00)

CZ-4 R/B - Pass Details

Date: 19 January 2021
Orbit: 531 x 598 km, 97.7° (Epoch: 07 March)

Event Time Altitude Azimuth Distance (km) Brightness Sun altitude
Rises 15:50:38 0° 173° (S) 2,865 5.3 -4.6°
Reaches altitude 10° 15:52:50 10° 177° (S) 1,961 4.5 -4.9°
Maximum altitude 15:57:01 57° 255° (WSW) 718 2.4 -5.7°
Drops below altitude 10° 16:01:11 10° 333° (NNW) 1,945 4.1 -6.4°
Sets 16:03:22 0° 337° (NNW) 2,839 4.9 -6.7°
